Sheboygan Falls, WI

11:06 PM CST on December 10, 2016 (GMT -0600)
Sheboygan County Memorial

Weather History for KSBM - October, 2013

Change the Weather History Date:

Tuesday, October 22, 2013

  Actual Average Record
Temperature  
Mean Temperature 38 °F -  
Max Temperature 48 °F 57 °F 76 °F (1978)
Min Temperature 30 °F 40 °F 19 °F (1997)
Degree Days  
Heating Degree Days 27    
Moisture  
Dew Point 28 °F    
Average Humidity 68    
Maximum Humidity 82    
Minimum Humidity 48    
Precipitation  
Precipitation 0.00 in - - ()
Sea Level Pressure  
Sea Level Pressure 29.92 in    
Wind  
Wind Speed 10 mph (WNW)    
Max Wind Speed 14 mph    
Max Gust Speed 20 mph    
Visibility 10 miles    
Events      
Averages and records for this station are not official NWS values.
T = Trace of Precipitation, MM = Missing Value Source: NWS Daily Summary

Daily Weather History Graph

Daily Weather History Graph

Search for Another Location

Airport or City:

Trip Planner

Search our weather history database for the weather conditions in past years. The results will help you decide how hot, cold, wet, or windy it might be!

Date:

Astronomy

Oct. 22, 2013 Rise Set
Actual Time 7:14 AM CDT 5:56 PM CDT
Civil Twilight 6:45 AM CDT 6:25 PM CDT
Nautical Twilight 6:11 AM CDT 6:58 PM CDT
Astronomical Twilight 5:38 AM CDT 7:32 PM CDT
Moon 8:31 PM CDT (10/22) 10:47 AM CDT (10/22)
Length of Visible Light 11h 39m
Length of Day
10h 41m
Waning Gibbous, 86% of the Moon is Illuminated
Oct 22
Waning Gibbous
Oct 26
Last Quarter
Nov 3
New
Nov 9
First Quarter
Nov 17
Full

Hourly Weather History & Observations

Time (CDT) Temp. Windchill Dew Point Humidity Pressure Visibility Wind Dir Wind Speed Gust Speed Precip Events Conditions
12:53 AM 32.0 °F 22.5 °F 21.9 °F 66% 29.89 in 10.0 mi West 12.7 mph - N/A   Clear
1:53 AM 33.1 °F 23.4 °F 23.0 °F 66% 29.89 in 10.0 mi West 13.8 mph 19.6 mph N/A   Clear
2:53 AM 32.0 °F 22.5 °F 23.0 °F 69% 29.89 in 10.0 mi WSW 12.7 mph - N/A   Clear
3:53 AM 30.9 °F 22.2 °F 24.1 °F 76% 29.89 in 10.0 mi West 10.4 mph - N/A   Clear
4:53 AM 30.9 °F 22.2 °F 25.0 °F 79% 29.90 in 10.0 mi West 10.4 mph - N/A   Clear
5:53 AM 30.9 °F 24.3 °F 25.0 °F 79% 29.92 in 10.0 mi West 6.9 mph - N/A   Clear
6:53 AM 30.9 °F 22.2 °F 26.1 °F 82% 29.92 in 10.0 mi West 10.4 mph - N/A   Clear
7:53 AM 32.0 °F 25.6 °F 27.0 °F 82% 29.93 in 10.0 mi WNW 6.9 mph - N/A   Clear
8:53 AM 36.0 °F 29.0 °F 28.9 °F 76% 29.93 in 10.0 mi West 9.2 mph - N/A   Clear
9:53 AM 39.0 °F 31.8 °F 30.9 °F 73% 29.94 in 10.0 mi WNW 11.5 mph - N/A   Clear
10:53 AM 42.1 °F 37.1 °F 32.0 °F 67% 29.94 in 10.0 mi WNW 8.1 mph - N/A   Clear
11:53 AM 44.1 °F 38.6 °F 32.0 °F 63% 29.92 in 10.0 mi NW 10.4 mph - N/A   Clear
12:53 PM 45.0 °F 40.6 °F 30.9 °F 58% 29.91 in 10.0 mi West 8.1 mph - N/A   Clear
1:53 PM 46.9 °F - 30.9 °F 54% 29.90 in 10.0 mi NW 5.8 mph - N/A   Partly Cloudy
2:53 PM 46.9 °F - 28.0 °F 48% 29.90 in 10.0 mi West 10.4 mph - N/A   Mostly Cloudy
3:53 PM 46.0 °F 42.5 °F 28.0 °F 50% 29.90 in 10.0 mi West 6.9 mph - N/A   Overcast
4:53 PM 44.1 °F 39.0 °F 28.0 °F 53% 29.91 in 10.0 mi WNW 9.2 mph - N/A   Overcast
5:53 PM 42.1 °F 39.2 °F 30.0 °F 62% 29.92 in 10.0 mi NW 4.6 mph - N/A   Overcast
6:53 PM 41.0 °F 39.0 °F 32.0 °F 70% 29.93 in 10.0 mi North 3.5 mph - N/A   Overcast
7:53 PM 39.9 °F 36.7 °F 30.0 °F 68% 29.94 in 10.0 mi NNW 4.6 mph - N/A   Overcast
8:53 PM 37.0 °F 33.3 °F 28.0 °F 70% 29.94 in 10.0 mi NW 4.6 mph - N/A   Scattered Clouds
9:53 PM 33.1 °F 28.7 °F 27.0 °F 78% 29.94 in 10.0 mi West 4.6 mph - N/A   Clear
10:53 PM 34.0 °F 28.0 °F 26.1 °F 73% 29.94 in 10.0 mi NNW 6.9 mph - N/A   Clear
11:53 PM 32.0 °F 25.6 °F 27.0 °F 82% 29.94 in 10.0 mi NNW 6.9 mph - N/A   Clear